SL-16 DEB, 39302

Orbit data source: Space-Track

SL-16 DEB, 39302 is space debris in LEO originally from a launch on Fri, 25 Dec 1992 UTC launched from the Tyuratam Missile And Space Complex (TTMTR). Debris objects in space refer to the collection of defunct objects orbiting the Earth. Examples of debris include non-operational satellites, rocket bodies, and fragments generated from explosions, collisions, or faulty payload assembly.

Loading next visibility...
Identifier
39302, 1992-093JT
Orbit
LEO
Country
Flag of CISCIS
Related business
Manufacturer
Unknown
Mission
Spacecraft
Bus & Motor
Unknown
Mass
Unknown
Launch date (UTC)
1992-12-25 (33 years ago)
Launch vehicle
Unknown
Launch site
Tyuratam Missile And Space Complex (TTMTR)
Object type
Payload
Rocket body
Debris
Shape & HBR
Unknown shape, 0.1 m
Radar Cross Section
Small (<0.1 m²)

Expand to show TLE details & history
Last TLE update: 6 days ago

TLE from 6 days ago
0 SL-16 DEB
1 39302U 92093JT  25292.26793146  .00010445  00000-0  37960-2 0  9999
2 39302  70.9827 150.1117 0120066 325.9358 151.5219 14.29455686623812
Epoch: 2025-10-19T06:25Z
TLE epoch observation values (Epoch: 2025-10-19T06:25:49.278Z)
Latitude
56.61612°
Longitude
174.31773°
Altitude
878.408 km
Speed
7.379 km/s
True Right ascension
19h 55m 02s
True Declination
56° 27' 38"
Sunlit
Object was in daylight at epoch
Visualization orbit readout
Latitude
Unknown
Longitude
Unknown
Altitude
Unknown
Speed
Unknown
Apparent Right ascension
Unknown
Apparent Declination
Unknown
Sunlit
N/A
Visualization observer readout
Local Sidereal Time
05:57:28
Azimuth
Unknown
Elevation
Unknown
Doppler factor
Unknown
Orbital elements
Apogee altitude
877.545 km
Perigee altitude
705.38 km
Semi-major axis
7,169.6 km
Eccentricity
0.01201
Inclination
70.9827°
RAAN
150.1117°
Arg. of periapsis
325.9358°
True anomaly
152.16938°
Mean anomaly
151.5219°
Eccentric anomaly
151.84649°
Mean motion
3.5752 °/min
Orbital period
100.69 mins
BSTAR
0.003796
Loading maneuver chart data...
Computing Atmospheric mass density...

Documentation

Showing up to 5 results
|